Regional Weather Roundup
Issued by NWS

Home | Current Version | Previous Version | Graphics & Text | Print | Product List | Glossary On
Versions: 1 2 3 4 5 6 7 8 9 10 11 12 13 14 15 16 17 18 19 20 21 22 23 24 25 26 27 28 29 30 31 32 33 34 35 36 37 38 39 40 41 42 43 44 45 46 47 48 49 50
000
ASUS43 KLMK 211402
RWRKY
KENTUCKY REGIONAL WEATHER ROUNDUP
NATIONAL WEATHER SERVICE LOUISVILLE KY
1000 AM EDT THU AUG 21 2014

NOTE "FAIR" INDICATES FEW OR NO CLOUDS BELOW 12,000 FEET
WITH NO SIGNIFICANT WEATHER AND/OR OBSTRUCTIONS TO VISIBILITY.

KYZ001>023-026-027-061>063-070>075-211500-
WESTERN AND SOUTH CENTRAL KENTUCKY

CITY           SKY/WX    TMP DP  RH WIND       PRES   REMARKS
PADUCAH        SUNNY     84  73  69 SW13      30.06R HX  90
HENDERSON      MOSUNNY   79  72  78 SW5       30.05R
OWENSBORO      PTSUNNY   80  68  67 W8        30.07R
HOPKINSVILLE   NOT AVBL
BOWLING GREEN  MOSUNNY   79  72  79 W8        30.11R
GLASGOW        SUNNY     73  71  93 SW5       30.12R
$$

KYZ024-025-028>034-038-045-046-053-211500-
NORTH CENTRAL KENTUCKY

CITY           SKY/WX    TMP DP  RH WIND       PRES   REMARKS
LOUISVILLE/SDF CLOUDY    76  71  85 SW10      30.07R
LOUISVILLE/LOU PTSUNNY   76  70  82 S6        30.07R
FORT KNOX      MOSUNNY   76  75  99 S8        30.07R
$$

KYZ035>037-039>044-047>052-055>060-089>105-211500-
NORTHEAST KENTUCKY

CITY           SKY/WX    TMP DP  RH WIND       PRES   REMARKS
LEXINGTON      PTSUNNY   76  68  76 SW7       30.11R
COVINGTON      LGT RAIN  72  69  90 S3        30.07S
FRANKFORT      PTSUNNY   75  69  81 SW7       30.08S
$$

KYZ054-064>069-076>088-106>120-211500-
SOUTHEAST KENTUCKY

CITY           SKY/WX    TMP DP  RH WIND       PRES   REMARKS
JACKSON        MOSUNNY   72  66  81 SE3       30.14S
LONDON         MOSUNNY   76  67  73 S6        30.15R
SOMERSET       MOSUNNY   72  70  94 CALM      30.15R
MIDDLESBORO    CLOUDY    69  66  92 CALM      30.18S
MONTICELLO     MOSUNNY   80  72  76 SW8       30.15R
$$



USA.gov is the U.S. government's official web portal to all federal, state and local government web resources and services.